Погода в Пасиге

Филиппины     14°33′39″N   121°04′54″E
темп.,
°C
ветер,
м/с
пор.,
м/с
влажн.,
%
обл.,
%
осадки,
мм/ч
давл.,
гПа
погр.,
м
12 апреля, пн
пн1223:00+27в46678 0.0 1014557
02:00+26в346844 0.0 1013453
05:00+26в227299 0.0 1013339
08:00+27всв126652 0.0 1014506
11:00+30юз135773 0.0 1013941
14:00+32ююв445195 0.0 10101093
17:00+32вюв8945100 0.0 1009648
20:00+29вюв676193 0.0 1011543
13 апреля, вт
вт1323:00+27всв226882 0.0 1013375
02:00+26в227390 0.0 1011321
05:00+26всв2273100 0.0 1011303
08:00+27вюв1167100 0.0 1012457
11:00+31зюз235633 0.0 1011890
14:00+33ю345089 0.0 1008966
17:00+33вюв685069 0.0 1007751
20:00+29вюв666639 0.0 1010629
14 апреля, ср
ср1423:00+28в337099 0.1 1011395
02:00+27в227199 0.2 1009316
05:00+27в227478 0.0 1010378
08:00+28в226789 0.0 1012578
11:00+31юз235548 0.0 1011933
14:00+32юв235065 0.0 1007950
17:00+32вюв6754100 0.1 1007569
20:00+29вюв566489 0.3 1010547
15 апреля, чт
чт1523:00+28вюв446960 0.0 1011486
02:00+27в44725 0.1 1009435
05:00+27в33735 0.0 1009414
08:00+28в33674 0.0 1011672
11:00+31ю245394 0.0 10101264
14:00+33юв564957 0.0 1007909
17:00+32вюв885562 0.0 1007706
20:00+29вюв676382 0.0 1010613
16 апреля, пт
пт1623:00+28вюв456690 0.0 1011533
02:00+27в337091 0.0 1010410
05:00+27вюв447421 0.0 1010458
08:00+28в3368100 0.0 1012636
11:00+31ю235598 0.0 10111042
14:00+32юв235291 0.0 10081113
17:00+31вюв6756100 0.0 1008688
20:00+28вюв7868100 0.0 1011615